IZ3VCM Weather Reports


Display with metric or nautical units.
time (UTC)temp
F
wind
direction
speed
MPH
gust
MPH
rain 1hr
in
rain 24hr
in
rain mn
in
humidity
%
barometer
mb
20260906154505 91 111 4.0 4.0 0.00 0.00 0.00 56 1020.4
20260906153008 91 112 2.0 7.0 0.00 0.00 0.00 55 1020.4
20260906151506 91 119 4.0 7.0 0.00 0.00 0.00 55 1020.5
20260906150007 92 68 1.0 2.0 0.00 0.00 0.00 55 1020.5
20260906144505 92 103 3.0 5.0 0.00 0.00 0.00 55 1020.5
20260906143008 92 79 4.0 6.0 0.00 0.00 0.00 56 1020.6
20260906141508 92 112 5.0 7.0 0.00 0.00 0.00 56 1020.7
20260906140007 92 89 3.0 4.0 0.00 0.00 0.00 55 1020.8
20260906134505 92 64 2.0 4.0 0.00 0.00 0.00 55 1021.0
20260906133008 93 112 1.0 5.0 0.00 0.00 0.00 54 1020.8
20260906131505 92 113 5.0 6.0 0.00 0.00 0.00 55 1020.8
20260906130008 92 90 1.0 2.0 0.00 0.00 0.00 54 1020.8
20260906124505 92 85 1.0 2.0 0.00 0.00 0.00 54 1020.9
20260906123007 92 38 2.0 4.0 0.00 0.00 0.00 55 1021.1
20260906121505 92 86 3.0 4.0 0.00 0.00 0.00 56 1021.1
20260906120007 92 107 3.0 7.0 0.00 0.00 0.00 55 1021.0
20260906114505 91 107 2.0 4.0 0.00 0.00 0.00 55 1021.1
20260906113008 91 45 1.0 5.0 0.00 0.00 0.00 56 1021.2
20260906111505 91 84 3.0 6.0 0.00 0.00 0.00 56 1021.2
20260906110007 91 83 2.0 4.0 0.00 0.00 0.00 55 1021.3
20260906104505 90 83 3.0 7.0 0.00 0.00 0.00 58 1021.3
20260906103007 90 112 4.0 6.0 0.00 0.00 0.00 58 1021.4
20260906101506 90 100 3.0 5.0 0.00 0.00 0.00 58 1021.6
20260906100006 90 57 1.0 4.0 0.00 0.00 0.00 59 1021.5
20260906094505 89 38 4.0 6.0 0.00 0.00 0.00 62 1021.6
20260906093007 88 53 3.0 7.0 0.00 0.00 0.00 61 1021.7
20260906091505 87 79 4.0 5.0 0.00 0.00 0.00 61 1021.7
20260906090007 88 38 2.0 4.0 0.00 0.00 0.00 61 1021.8
20260906084507 86 82 4.0 7.0 0.00 0.00 0.00 61 1021.7
20260906083007 85 45 6.0 7.0 0.00 0.00 0.00 61 1021.8
20260906081504 84 48 5.0 6.0 0.00 0.00 0.00 62 1021.7
20260906080007 84 44 4.0 6.0 0.00 0.00 0.00 62 1021.7
20260906074504 82 45 3.0 4.0 0.00 0.00 0.00 63 1021.6
20260906073006 82 35 5.0 6.0 0.00 0.00 0.00 64 1021.3
20260906071505 80 43 4.0 7.0 0.00 0.00 0.00 66 1021.3
20260906070006 79 39 3.0 4.0 0.00 0.00 0.00 69 1021.2
20260906064505 77 45 1.0 2.0 0.00 0.00 0.00 74 1021.2
20260906063007 74 23 0.0 4.0 0.00 0.00 0.00 76 1021.0
20260906061504 74 0 0.0 0.0 0.00 0.00 0.00 76 1020.8
20260906060006 73 14 2.0 4.0 0.00 0.00 0.00 77 1020.5
20260906054504 73 0 0.0 0.0 0.00 0.00 0.00 78 1020.5
20260906053007 72 0 0.0 0.0 0.00 0.00 0.00 81 1020.3
20260905231504 72 0 0.0 0.0 0.00 0.00 0.00 89 1018.5
20260905230008 72 0 0.0 0.0 0.00 0.00 0.00 89 1018.4
20260905224504 72 0 0.0 0.0 0.00 0.00 0.00 88 1018.3
20260905221505 72 0 0.0 0.0 0.00 0.00 0.00 87 1018.1
20260905220007 72 0 0.0 0.0 0.00 0.00 0.00 86 1017.9
20260905214504 74 0 0.0 0.0 0.00 0.00 0.00 85 1017.8
20260905213007 74 0 0.0 0.0 0.00 0.00 0.00 85 1017.7
20260905211505 74 0 0.0 0.0 0.00 0.00 0.00 85 1017.7
20260905210007 75 0 0.0 0.0 0.00 0.00 0.00 83 1017.5
20260905204505 76 0 0.0 0.0 0.00 0.00 0.00 82 1017.5
20260905203007 77 128 0.0 3.0 0.00 0.00 0.00 81 1017.5
20260905201506 78 135 1.0 3.0 0.00 0.00 0.00 81 1017.3
20260905200006 79 122 3.0 4.0 0.00 0.00 0.00 80 1017.3
20260905194504 79 136 4.0 6.0 0.00 0.00 0.00 79 1017.3
20260905193008 80 135 3.0 4.0 0.00 0.00 0.00 78 1016.8
20260905191506 80 135 4.0 5.0 0.00 0.00 0.00 76 1016.7
20260905190006 80 127 4.0 6.0 0.00 0.00 0.00 74 1016.5
20260905184505 81 117 3.0 5.0 0.00 0.00 0.00 72 1016.2
20260905183007 81 123 3.0 6.0 0.00 0.00 0.00 66 1016.0
20260905181504 81 0 0.0 0.0 0.00 0.00 0.00 61 1015.7
20260905180007 83 0 0.0 0.0 0.00 0.00 0.00 59 1015.5
20260905174504 84 0 0.0 0.0 0.00 0.00 0.00 57 1015.5
20260905173006 86 0 0.0 0.0 0.00 0.00 0.00 56 1015.3
20260905171505 89 0 0.0 0.0 0.00 0.00 0.00 51 1015.2
20260905170006 94 0 0.0 0.0 0.00 0.00 0.00 48 1015.1
20260905164504 97 0 0.0 0.0 0.00 0.00 0.00 47 1015.2
20260905163007 96 0 0.0 0.0 0.00 0.00 0.00 46 1015.0
20260905161505 96 0 0.0 0.0 0.00 0.00 0.00 45 1015.1
20260905160007 96 314 0.0 2.0 0.00 0.00 0.00 45 1015.0